Regional Weather Roundup
Issued by NWS

Home | Current Version | Previous Version | Graphics & Text | Print | Product List | Glossary On
Versions: 1 2 3 4 5 6 7 8 9 10 11 12 13 14 15 16 17 18 19 20 21 22 23 24 25 26 27 28 29 30 31 32 33 34 35 36 37 38 39 40 41 42 43 44 45 46 47 48 49 50
000
ASUS43 KMKX 242021
RWRWI

WISCONSIN REGIONAL WEATHER ROUNDUP
NATIONAL WEATHER SERVICE MILWAUKEE/SULLIVAN WI
300 PM CDT SUN JUL 24 2016

NOTE: "FAIR" INDICATES FEW OR NO CLOUDS BELOW 12,000 FEET WITH NO
SIGNIFICANT WEATHER AND/OR OBSTRUCTIONS TO VISIBILITY.

WIZ001-002-006>008-014>016-023>028-242100-
NORTHWEST WISCONSIN

CITY           SKY/WX    TMP DP  RH WIND       PRES   REMARKS
SUPERIOR ARPT  SUNNY     81  63  53 W13G18    29.80F HX  82
ASHLAND        MOSUNNY   85  63  47 W16G24    29.80S HX  86
HAYWARD        MOSUNNY   80  62  54 W14G23    29.85R HX  81
SIREN          SUNNY     81  59  47 NW16      29.87S HX  81
CUMBERLAND     CLOUDY    79  61  53 NW15      29.86S HX  80
RICE LAKE      CLOUDY    80  63  55 W9G17     29.87R HX  82
CHETEK         CLOUDY    82  65  57 W8G16     29.86R HX  84
LADYSMITH      MOSUNNY   82  64  53 W13       29.86S HX  83
EAU CLAIRE     SUNNY     85  63  47 W16       29.85R HX  86
MENOMONIE      SUNNY     85  62  46 W12G20    29.86S HX  86
NEW RICHMOND   SUNNY     82  60  47 NW12G17   29.88S HX  82
OSCEOLA        SUNNY     81  63  53 W10G16    29.89F HX  82
$$

WIZ003>005-009-010-017-018-242100-
NORTH CENTRAL WISCONSIN

CITY           SKY/WX    TMP DP  RH WIND       PRES   REMARKS
MANITOWISH WTR PTSUNNY   81  62  52 W12G21    29.83R HX  82
ARBOR VITAE    MOSUNNY   82  64  53 W13       29.84R HX  84
WOODRUFF       MOSUNNY   82  64  53 W13       29.84R HX  84
RHINELANDER    MOSUNNY   84  66  54 W9G22     29.84S HX  86
EAGLE RIVER    MOSUNNY   82  62  51 W13G20    29.82S HX  83
LAND O LAKES   MOSUNNY   83  62  48 W12G17    29.82F HX  83
PHILLIPS       PTSUNNY   81  64  55 W9        29.84R HX  82
TOMAHAWK       MOSUNNY   81  63  54 W9        29.84S HX  82
MEDFORD        MOSUNNY   81  66  59 W10       29.85F HX  83
MERRILL        MOSUNNY   82  68  62 W12       29.83F HX  85
$$

WIZ029-030-035-036-043>047-242100-
CENTRAL WISCONSIN

CITY           SKY/WX    TMP DP  RH WIND       PRES   REMARKS
WAUSAU         MOSUNNY   84  69  60 W14       29.82S HX  88
MOSINEE        PTSUNNY   82  73  74 SW10      29.85F HX  88
MARSHFIELD     SUNNY     85  64  49 W16G22    29.85S HX  86
STEVENS POINT  SUNNY     82  69  64 W13G22    29.84S HX  86
WAUPACA        MOSUNNY   89  73  58 W12G17    29.81S HX  96
WAUTOMA        MOSUNNY   87  77  72 W9        29.82S HX  99
WISC RAPIDS    MOSUNNY   87  69  54 NW9       29.85S HX  91
CAMP DOUGLAS   SUNNY     86  71  60 W9G17     29.84S HX  91
$$

WIZ011>013-019>022-031-037>040-048>050-242100-
NORTHEAST WISCONSIN

CITY           SKY/WX    TMP DP  RH WIND       PRES   REMARKS
ANTIGO         MOSUNNY   80  73  76 W9        29.84F HX  85
SHAWANO        CLOUDY    82  76  81 W8        29.80S HX  90
OCONTO         CLOUDY    80  80 100 SW7       29.78S HX  86
STURGEON BAY   CLOUDY    78  73  84 S13       29.79F HX  81
GREEN BAY      CLOUDY    83  80  91 W5        29.78F HX  95
MANITOWOC      CLOUDY    79  73  82 S12       29.80F HX  82
APPLETON       PTSUNNY   84  75  74 W12G18    29.79  HX  92
CLINTONVILLE   PTSUNNY   82  73  74 W12G21    29.81S HX  88
OSHKOSH        MOSUNNY   88  78  72 W8        29.79F HAZE    HX 101
$$

WIZ032>034-041-042-053>061-242100-
SOUTHWEST WISCONSIN

CITY           SKY/WX    TMP DP  RH WIND       PRES   REMARKS
LA CROSSE      SUNNY     89  66  46 NW10      29.85R HX  91
SPARTA         SUNNY     87  64  45 NW10      29.85F HX  88
VIROQUA        SUNNY     85  66  52 N8        29.89S HX  87
BOSCOBEL       SUNNY     92  72  51 NW9       29.85R HX  99
PRAIRIE DU CHI SUNNY     87  64  45 NW15      29.86R HX  88
PLATTEVILLE    MOSUNNY   85  81  87 W5        29.88S HX 102
$$

WIZ056-057-062-063-064-067-068-242100-
SOUTH CENTRAL WISCONSIN

CITY           SKY/WX    TMP DP  RH WIND       PRES   REMARKS
REEDSBURG      MOSUNNY   88  75  66 W12       29.84S HX  97
BARABOO/DELLS  PTSUNNY   87  74  65 W7        29.84F HX  94
LONE ROCK      CLOUDY    87  77  72 NW7       29.84S HX  99
MINERAL POINT  PTSUNNY   88  81  79 SW5       29.88S HX 105
MADISON        PTSUNNY   90  79  70 NW9G17    29.83S HX 106
MIDDLETON      PTSUNNY   89  78  70 W12G18    29.86R HX 103
WATERTOWN      MOSUNNY   90  81  73 SW12      29.81F HX 109
MONROE         PTSUNNY   88  79  74 W13G18    29.86S HX 102
JANESVILLE     PTSUNNY   93  77  59 W12G17    29.84S HX 107
$$

WIZ051-052-058>065-066-070>072-242100-
SOUTHEAST WISCONSIN

CITY           SKY/WX    TMP DP  RH WIND       PRES   REMARKS
MILWAUKEE      PTSUNNY   92  78  63 S16G22    29.81F HX 107
WAUKESHA       NOT AVBL
MILWAUKEE/TIMM PTSUNNY   91  72  52 W12       29.82F HX  98
RACINE         TSTM      82  74  76 VRB3      29.84S HX  88
BURLINGTON     MOSUNNY   95  84  70 W10G18    29.83F HX 122
KENOSHA        MOSUNNY   93  77  59 SW17G25   29.84S HX 107
FOND DU LAC    LGT RAIN  88  78  72 SW9       29.80F HX 101
SHEBOYGAN      SUNNY     82  74  76 S7        29.81F HX  88
WEST BEND      PTSUNNY   88  77  70 SW10G16   29.82S HX 100
JUNEAU         MOSUNNY   88  78  72 SW12      29.84S HX 102
$$

LSZ147-162-242100-
LAKE SUPERIOR

STATION/POSITION TIME  TEMP    WIND        PRES    WAVE
                       AIR SEA DIR/SP/G            HT/PER
                 (UTC) (F)     (DEG/KT/KT) (MB)    (FT/S)
W MID LAKE BUOY  1950   64 58  230/ 12/ 14 1006.5S   1/ 3
DEVILS ISLAND    2000   70     250/ 21/ 24 1007.8R
PORT WING        1940   77     250/ 12/ 18 1009.5
SAXON HARBOR     1900   80     280/  5/ 12 1008.5R
$$

LMZ867-665-643>646-242100-
LAKE MICHIGAN

STATION/POSITION TIME  TEMP    WIND        PRES    WAVE
                       AIR SEA DIR/SP/G            HT/PER
                 (UTC) (F)     (DEG/KT/KT) (MB)    (FT/S)
CHAMBERS ISLAND  1900   77     190/  6/ 13 1008.5F
S GREEN BAY BUOY 2000   76 74  190/  6/ 10   N/A
N MID LAKE BUOY  1950   69 68  210/ 12/ 14 1007.8F   3/ 5
NORTHPORT PIER   1940   74     160/  5/ 11 1008.1F
KEWAUNEE LAKESHO 1900   67     180/ 15/ 16 1009.1F
SHEBOYGAN LAKESH 2000   72     180/ 23/ 24 1009.2F
PORT WASHINGTON  1900   68     200/  4/  8 1010.5F
MILWAUKEE LAKESH 1910   70     150/ 11/ 12   N/A
S MID LAKE BUOY  1950   76 72  150/ 17/ 19 1009.4F   3/ 5
KENOSHA   LAKESH 2000   79     190/ 10/ 16 1009.8S
$$

TC  - TEMPERATURE IN CELSIUS
VSB - VISIBILITY IN STATUTE MILES
WCI - WIND CHILL INDEX
HX  - HEAT INDEX




USA.gov is the U.S. government's official web portal to all federal, state and local government web resources and services.